Location: Newark
(34.1333°N, 7.9667°W)
Time: 10:33:31
(UTC+00:00)

Transit 2A - Pass Details

Date: 22 June 2021
Orbit: 598 x 960 km, 66.7° (Epoch: 29 July)

Event Time Altitude Azimuth Distance (km) Brightness Sun altitude
Rises 01:16:39 0° 339° (NNW) 3,108 9.9 -31.5°
Reaches altitude 10° 01:18:57 10° 344° (NNW) 2,239 9.1 -31.4°
Enters shadow 01:23:29 51° 41° (NE) 979 6.7 -31.2°
Maximum altitude 01:23:58 53° 61° (ENE) 965 - -31.2°
Drops below altitude 10° 01:29:31 10° 138° (SE) 2,469 - -30.9°
Sets 01:32:10 0° 143° (SE) 3,456 - -30.8°
